Regional Weather Roundup
Issued by NWS Midland/Odessa, TX

Home | Current Version | Previous Version | Text Only | Print | Product List | Glossary On
Versions: 1 2 3 4 5 6 7 8 9 10 11 12 13 14 15 16 17 18 19 20 21 22 23 24 25 26 27 28 29 30 31 32 33 34 35 36 37 38 39 40 41 42 43 44 45 46 47 48 49 50
113
ASUS44 KMAF 201010
RWRMAF
MIDLAND AREA WEATHER ROUNDUP
NATIONAL WEATHER SERVICE MIDLAND TX
400 AM CST FRI JAN 20 2017

...IN SOUTHWEST TEXAS AND SOUTHEAST NEW MEXICO...

CITY           SKY/WX    TMP DP  RH WIND       PRES   REMARKS
ALPINE         CLEAR     49  26  40 W17G28    29.87F
ANDREWS        FAIR      46  32  59 W13       29.73F WCI  40
ARTESIA        CLEAR     48  34  57 W28G35    29.70R WCI  40
BIG SPRING     CLEAR     44  34  67 SW12      29.74S WCI  38
CARLSBAD       CLEAR     51  30  44 W20G30    29.71F
DRYDEN           N/A     47  29  49 W10       29.76F
FORT STOCKTON  CLEAR     45  30  55 SW10      29.79F WCI  40
GUAD PASS      NOT AVBL
HOBBS          NOT AVBL
MARFA          CLOUDY    37  26  64 W7        29.87F WCI  32
MIDLAND AIRPK  CLEAR     52  32  47 W15G21    29.74S
MIDLAND INTL   CLEAR     51  31  46 W16       29.73F
ODESSA         CLEAR     50  31  48 W15       29.75S
PECOS          CLEAR     41  31  68 W3        29.78S
PRESIDIO       FAIR      45  25  46 CALM      29.85S
SEMINOLE       CLEAR     45  32  61 W10       29.72S WCI  39
SNYDER         CLEAR     44  34  66 SW14      29.68S WCI  38
WINK           CLEAR     50  30  46 SW14      29.75F
$$
...OTHER STATIONS IN TEXAS...

CITY           SKY/WX    TMP DP  RH WIND       PRES   REMARKS
ABILENE        CLEAR     52  33  48 SW10      29.66S
AMARILLO       CLEAR     47  33  58 W29G43    29.48F WCI  38
AUSTIN         FOG       57  56  96 SW5       29.74R VSB 1/4
BROWNSVILLE    CLOUDY    71  70  96 E3        29.71F
CORPUS CHRISTI DRIZZLE   63  63 100 SW5       29.75S FOG
DALLAS FTW     CLEAR     50  43  77 SW13      29.59F
DEL RIO        CLOUDY    45  43  93 CALM      29.77R
EL PASO        PTCLDY    47  27  45 SW15      29.81F
HOUSTON INT    FOG       61  60  97 SW7       29.75S VSB 1/2
LUBBOCK        CLEAR     45  34  65 W20       29.62R WCI  37
SAN ANGELO     CLEAR     56  31  38 W15       29.73R
SAN ANTONIO    CLOUDY    48  46  93 CALM      29.75S
WACO           CLEAR     50  47  89 SW10      29.70R
WICHITA FALLS  NOT AVBL
$$
...OTHER LOCATIONS IN NEW MEXICO...

CITY           SKY/WX    TMP DP  RH WIND       PRES   REMARKS
ALAMAGORDO     CLOUDY    45  32  61 S10       29.82F WCI  39
ALBUQUERQUE    PTCLDY    37  29  72 S5        29.73F WCI  33
CANNON AFB     CLEAR     39  35  88 W17       29.63S WCI  29
CLOVIS         CLEAR     41  28  60 W18       29.61S WCI  32
HOLLOMAN AFB   CLOUDY    46  33  58 SW12      29.84F
ROSWELL        CLEAR     49  30  48 W15       29.68F
RUIDOSO        LGT RAIN  34  30  86 SW21G28   29.77F WCI  22
SANTA FE       CLOUDY    33  27  78 W12       29.68F WCI  24
TRUTH OR CONSE CLOUDY    43  31  62 SW7       29.76F WCI  39
TUCUMCARI      CLEAR     46  30  53 W30G41    29.54S WCI  37
$$




USA.gov is the U.S. government's official web portal to all federal, state and local government web resources and services.